Location: Indian Tree Observatory
(39.4030°N, 104.5929°W)
Time: 02:44:57
(UTC-07:00)

Envisat - Pass Details

Date: 20 November 2018
Orbit: 764 x 766 km, 98.2° (Epoch: 13 December)

Event Time Altitude Azimuth Distance (km) Brightness Sun altitude
Rises 18:43:14 0° 162° (SSE) 3,214 6.1 -23.6°
Enters shadow 18:45:19 - 161° (SSE) 2,380 5.4 -24.0°
Exits shadow 18:49:30 55° 146° (SE) 912 3.1 -24.8°
Maximum altitude 18:50:34 77° 76° (ENE) 786 2.8 -25.1°
Drops below altitude 10° 18:55:39 10° 350° (N) 2,307 5.5 -26.0°
Sets 18:57:58 0° 349° (N) 3,237 6.3 -26.5°
